HK6RM-16 Weather Reports


time (UTC)temp
C
wind
direction
speed
KPH
gust
KPH
rain 1hr
cm
rain 24hr
cm
rain mn
cm
humidity
%
barometer
mb
20260503072301 13 110 3.2 0.0 0.00 0.00 0.00 10 1017.0
20260503070657 13 110 3.2 0.0 0.00 0.00 0.00 10 1017.0
20260503060251 13 0 1.6 0.0 0.00 0.00 0.00 10 1018.0
20260503054650 13 0 1.6 0.0 0.00 0.00 0.00 10 1018.0
20260503053049 13 0 1.6 0.0 0.00 0.00 0.00 10 1018.0
20260503051448 13 0 1.6 0.0 0.00 0.00 0.00 10 1018.0
20260503045847 13 0 3.2 0.0 0.00 0.00 0.00 10 1018.0
20260503044247 13 0 3.2 0.0 0.00 0.00 0.00 10 1018.0
20260503042646 13 0 3.2 0.0 0.00 0.00 0.00 10 1019.0
20260503041045 13 0 3.2 0.0 0.00 0.00 0.00 10 1019.0
20260503035444 13 0 3.2 0.0 0.00 0.00 0.00 10 1019.0
20260503033844 14 0 3.2 0.0 0.00 0.00 0.00 10 1018.0
20260503032244 11 42 1.6 1.6 0.00 0.00 0.00 93 1018.0
20260503030643 11 42 1.6 1.6 0.00 0.00 0.00 93 1018.0
20260503025043 11 42 1.6 1.6 0.00 0.00 0.00 93 1018.0
20260503023440 11 68 1.6 6.4 0.00 0.00 0.00 93 1018.0
20260503021840 11 68 1.6 6.4 0.00 0.00 0.00 93 1017.0
20260503020234 11 68 1.6 6.4 0.00 0.00 0.00 93 1017.0
20260503014631 11 68 1.6 6.4 0.00 0.00 0.00 93 1017.0
20260503013030 11 68 1.6 6.4 0.00 0.00 0.00 93 1017.0
20260503011430 11 68 1.6 6.4 0.00 0.00 0.00 93 1017.0
20260503005829 11 68 3.2 6.4 0.00 0.00 0.00 93 1017.0
20260503004229 11 290 12.9 0.0 0.00 0.00 0.00 94 1016.0
20260503002628 11 290 12.9 0.0 0.00 0.00 0.00 94 1015.0
20260503001027 11 290 12.9 0.0 0.00 0.00 0.00 94 1015.0
20260502235426 11 290 12.9 0.0 0.00 0.00 0.00 94 1015.0
20260502233826 11 290 12.9 0.0 0.00 0.00 0.00 94 1015.0
20260502232225 11 290 12.9 0.0 0.00 0.00 0.00 94 1015.0
20260502230625 11 290 12.9 0.0 0.00 0.00 0.00 94 1015.0
20260502225022 11 290 12.9 0.0 0.00 0.00 0.00 94 1015.0
20260502223421 12 290 12.9 0.0 0.00 0.00 0.00 94 1015.0
20260502221815 12 290 12.9 0.0 0.00 0.00 0.00 94 1014.0
20260502220215 12 290 12.9 0.0 0.00 0.00 0.00 94 1014.0
20260502214614 12 290 12.9 0.0 0.00 0.00 0.00 94 1014.0
20260502213014 13 290 12.9 0.0 0.00 0.00 0.00 95 1014.0
20260502211413 12 290 12.9 0.0 0.00 0.00 0.00 94 1014.0
20260502205813 13 290 12.9 0.0 0.00 0.00 0.00 94 1014.0
20260502204212 13 290 12.9 0.0 0.00 0.00 0.00 92 1014.0
20260502202611 13 290 12.9 0.0 0.00 0.00 0.00 89 1014.0
20260502201011 13 290 12.9 0.0 0.00 0.00 0.00 90 1014.0
20260502195411 13 290 12.9 0.0 0.00 0.00 0.00 85 1014.0
20260502193810 13 290 12.9 0.0 0.00 0.00 0.00 84 1014.0
20260502192209 13 290 12.9 0.0 0.00 0.00 0.00 82 1014.0
20260502190609 13 290 12.9 0.0 0.00 0.00 0.00 82 1014.0
20260502185008 13 290 12.9 0.0 0.00 0.00 0.00 81 1014.0
20260502183407 13 290 12.9 0.0 0.00 0.00 0.00 81 1014.0
20260502181806 13 290 12.9 0.0 0.00 0.00 0.00 81 1014.0
20260502180206 14 290 12.9 0.0 0.00 0.00 0.00 81 1014.0
20260502164201 17 290 14.5 0.0 0.00 0.00 0.00 81 1016.0
20260502162600 14 274 1.6 1.6 0.00 0.00 0.00 77 1016.0
20260502161000 15 274 3.2 3.2 0.00 0.00 0.00 77 1016.0
20260502152156 14 0 1.6 0.0 0.00 0.00 0.00 77 1016.0
20260502150556 15 0 1.6 0.0 0.00 0.00 0.00 77 1016.0
20260502122546 13 110 4.8 0.0 0.00 0.00 0.00 87 1016.0
20260502120944 13 110 4.8 0.0 0.00 0.00 0.00 87 1016.0
20260502115343 13 120 4.8 0.0 0.00 0.00 0.00 86 1016.0
20260502113743 13 120 4.8 0.0 0.00 0.00 0.00 86 1016.0
20260502112142 13 120 4.8 0.0 0.00 0.00 0.00 85 1016.0
20260502110537 13 120 4.8 0.0 0.00 0.00 0.00 84 1016.0
20260502104935 13 120 4.8 0.0 0.00 0.00 0.00 83 1016.0
20260502103334 14 120 4.8 0.0 0.00 0.00 0.00 82 1016.0
20260502101734 14 120 4.8 0.0 0.00 0.00 0.00 82 1016.0
20260502100134 15 0 3.2 0.0 0.00 0.00 0.00 82 1016.0
20260502091332 9 110 6.4 4.8 0.00 0.00 0.00 82 1016.0